Hourly Data Report for September 07, 2017

All times are specified in Local Standard Time (LST). Add 1 hour to adjust for Daylight Saving Time where and when it is observed.

KUGLUKTUK A
NUNAVUT

67°49'00.000" N
115°08'38.000" W
22.60 m
2300903
71938
YCO

Download Data

Hourly Data (September 2017)
Hourly Data Report for September 7, 2017
Temp Definition
°C
Dew Point Temp Definition
°C
Rel Hum Definition
%
Wind Dir Definition
10's deg

Wind Spd Definition
km/h
Visibility Definition
km
Stn Press Definition
kPa
Hmdx Definition


Wind Chill Definition


Weather Definition


TIME
00:00 Legend Double Dagger 7.5 7.2 98 3 24 24.1 100.43     LegendNANA
01:00 Legend Double Dagger 7.2 6.9 98 7 28 24.1 100.35     LegendNANA
02:00 Legend Double Dagger 7.3 7.0 98 6 17 19.3 100.26     Drizzle
03:00 Legend Double Dagger 7.2 7.0 98 7 19 24.1 100.18     LegendNANA
04:00 Legend Double Dagger 7.3 7.1 99 6 18 24.1 100.14     LegendNANA
05:00 Legend Double Dagger 7.1 7.0 99 6 22 6.4 100.08     Fog
06:00 Legend Double Dagger 7.5 7.4 100 6 25 6.4 99.99     Fog
07:00 Legend Double Dagger 7.6 7.4 98 7 17 9.7 99.90     Fog
08:00 Legend Double Dagger 7.5 7.3 99 7 22 6.4 99.82     Fog
09:00 Legend Double Dagger 7.7 7.5 99 6 22 6.4 99.75     Fog
10:00 Legend Double Dagger 7.9 7.5 97 5 22 6.4 99.73     Fog
11:00 Legend Double Dagger 8.2 7.6 96 6 29 6.4 99.63     Fog
12:00 Legend Double Dagger 8.4 7.7 95 7 21 8.1 99.62     Fog
13:00 Legend Double Dagger 8.3 7.6 95 6 26 9.7 99.51     Fog
14:00 Legend Double Dagger 8.5 7.8 95 8 32 9.7 99.39     Fog
15:00 Legend Double Dagger 8.5 8.0 97 8 27 6.4 99.26     Fog
16:00 Legend Double Dagger 8.6 8.2 97 8 27 8.1 99.20     Fog
17:00 Legend Double Dagger 8.5 7.8 95 8 28 9.7 99.09     Fog
18:00 Legend Double Dagger 8.4 7.8 96 9 36 9.7 99.01     Rain,Fog
19:00 Legend Double Dagger 8.4 8.0 97 9 37 9.7 98.75     Rain,Fog
20:00 Legend Double Dagger 8.3 8.0 98 9 43 9.7 98.63     Rain,Fog
21:00 Legend Double Dagger 8.5 8.1 97 9 35 9.7 98.52     Rain,Fog
22:00 Legend Double Dagger 8.7 8.2 97 9 28 9.7 98.45     Rain,Fog
23:00 Legend Double Dagger 8.5 8.2 98 9 27 6.4 98.31     Rain,Fog

Notes on Data Quality.

Legend

  • E = Estimated
  • M = Missing
  • NA = Not Available
  • ‡ = Partner data that is not subject to review by the National Climate Archives
Date modified: